Showing default

SPACEMOBILE-001, 61047

Orbit data source: Space-Track

SPACEMOBILE-001, 61047 is a payload satellite owned by AST & Science (US) in LEO that was launched on Thu, 12 Sep 2024 UTC via an FALCON 9 launch vehicle from the Air Force Eastern Test Range (AFETR). Payload-class satellites include a variety of spacecraft equipped with specific instruments for various scientific and technological missions. These include communications satellites like Starlink; space stations such as the ISS; scientific satellites like the Hubble; Earth observation satellites from companies like Planet Labs, Umbra, and HawkEye 360; GPS; miniature CubeSats for education and research; and military/defense satellites.

Loading next visibility...
Identifier
61047, 2024-163C
Orbit
LEO
Country
Flag of USUS
Related business
Manufacturer
AST & Science
Mission
Operational Commercial Communications
Bus & Motor
BW3, Unknown motor
Mass
1,500 kg wet, 1,500 kg dry
Launch date (UTC)
2024-09-12 (1 year ago)
Launch vehicle
FALCON 9
Launch site
Air Force Eastern Test Range (AFETR)
Object type
Payload
Rocket body
Debris
Shape & HBR
Box + 1 Plate, 4.5 m
Radar Cross Section
1.500 m², Large (>1 m²)

Expand to show TLE details & history
Last TLE update: 22 hours ago

TLE from 22 hours ago
0 SPACEMOBILE-001
1 61047U 24163C   25257.41097238  .00003963  00000-0  19264-3 0  9995
2 61047  52.9706 137.6167 0011873  21.0280 339.1200 15.20663759 55791
Epoch: 2025-09-14T09:51Z
TLE epoch observation values (Epoch: 2025-09-14T09:51:48.013Z)
Latitude
-0.00003°
Longitude
-3.96375°
Altitude
497.08 km
Speed
7.622 km/s
True Right ascension
09h 10m 28s
True Declination
0° 00' 00"
Sunlit
Object was in daylight at epoch
Visualization orbit readout
Latitude
Unknown
Longitude
Unknown
Altitude
Unknown
Speed
Unknown
Apparent Right ascension
Unknown
Apparent Declination
Unknown
Sunlit
N/A
Visualization observer readout
Local Sidereal Time
00:49:45
Azimuth
Unknown
Elevation
Unknown
Doppler factor
Unknown
Orbital elements
Apogee altitude
512.294 km
Perigee altitude
495.952 km
Semi-major axis
6,882.26 km
Eccentricity
0.00119
Inclination
52.9706°
RAAN
137.6167°
Arg. of periapsis
21.028°
True anomaly
339.07144°
Mean anomaly
339.12°
Eccentric anomaly
339.09573°
Mean motion
3.80143 °/min
Orbital period
94.7 mins
BSTAR
0.00019264
Loading maneuver chart data...
Computing Atmospheric mass density...
Loading historical data...
Loading historical data...
Loading historical data...
Loading historical data...
Loading historical data...
Loading historical data...
Loading historical data...

Documentation

Showing up to 5 results
|